This is the latest recevied weather packets stored in our database for station/object VE2XOX. If no packets are shown the sender has not sent any weather packets the latest 10 day(s).
| Time | Temp. | Humidity | Pressure | Rain* | Wind** | Luminosity | Snow |
|---|---|---|---|---|---|---|---|
| 1777583112 | 9.44° C | 91% | 1005.2 hPa | 5.08 mm | - | - | - |
| 1777582821 | 9.44° C | 91% | 1005.2 hPa | 5.08 mm | - | - | - |
| 1777582526 | 9.44° C | 91% | 1005.2 hPa | 5.08 mm | - | - | - |
| 1777582212 | 9.44° C | 91% | 1005.1 hPa | 5.08 mm | - | - | - |
| 1777581923 | 9.44° C | 91% | 1005.1 hPa | 5.08 mm | - | - | - |
| 1777581628 | 9.44° C | 91% | 1005.2 hPa | 4.06 mm | - | - | - |
| 1777581312 | 9.44° C | 91% | 1005.1 hPa | 4.06 mm | - | - | - |
| 1777581021 | 9.44° C | 91% | 1005.2 hPa | 5.08 mm | - | - | - |
| 1777580728 | 9.44° C | 91% | 1005.2 hPa | 4.06 mm | - | - | - |
| 1777580415 | 9.44° C | 91% | 1005.2 hPa | 4.06 mm | - | - | - |
| 1777580126 | 9.44° C | 91% | 1005.2 hPa | 4.06 mm | - | - | - |
| 1777579830 | 9.44° C | 91% | 1005.1 hPa | 4.06 mm | - | - | - |
| 1777579515 | 9.44° C | 91% | 1005.1 hPa | 4.06 mm | - | - | - |
| 1777579221 | 9.44° C | 91% | 1005.1 hPa | 4.06 mm | - | - | - |
| 1777578928 | 9.44° C | 91% | 1005.2 hPa | 3.05 mm | - | - | - |
| 1777578613 | 9.44° C | 91% | 1005.3 hPa | 4.06 mm | - | - | - |
| 1777578325 | 9.44° C | 91% | 1005.3 hPa | 3.05 mm | - | - | - |
| 1777578031 | 10° C | 91% | 1005.2 hPa | 3.05 mm | - | - | - |
| 1777577718 | 10° C | 91% | 1005 hPa | 3.05 mm | - | - | - |
| 1777577430 | 9.44° C | 91% | 1005 hPa | 2.03 mm | - | - | - |
| 1777577115 | 9.44° C | 91% | 1005 hPa | 3.05 mm | - | - | - |
| 1777576820 | 9.44° C | 91% | 1005.1 hPa | 3.05 mm | - | - | - |
| 1777576532 | 10° C | 91% | 1005.1 hPa | 3.05 mm | - | - | - |
| 1777576217 | 10° C | 91% | 1005.2 hPa | 3.05 mm | - | - | - |
| 1777575925 | 9.44° C | 91% | 1005.3 hPa | 4.06 mm | - | - | - |
* Rain latest hour (hover to see other rain measurements)
** Current wind speed in m/s (hover to see current wind gust speed)